{"data":{"norad_id":62710,"epoch":"2026-05-25T04:35:58.323264Z","epoch_age_seconds":68960,"freshness":"FRESH","line1":"1 62710U 25009DF  26145.19164726  .00000956  00000+0  97783-4 0  9993","line2":"2 62710  97.7060 223.8354 0002666 222.5731 137.5282 14.92818964 73905","mean_motion":14.92818964,"eccentricity":0.0002666,"inclination_deg":97.706,"raan_deg":223.8354,"arg_perigee_deg":222.5731,"mean_anomaly_deg":137.5282,"bstar":9.7783e-5,"rev_number":7390,"period_min":96.461797091693,"perigee_km":587.29324434281,"apogee_km":591.00820215685,"semimajor_km":6967.2877232498,"source":"CELESTRAK","updated_at":"2026-05-25T13:38:03.207319Z"}}